AirNav   ProFlight Series 2 Aviation Headset
 
 1520 users online  

03MI Harold Miller Heliport
Bay City, Michigan, USA

GOING TO BAY CITY?


FAA INFORMATION EFFECTIVE 13 AUGUST 2020

Location

FAA Identifier: 03MI
Lat/Long: 43-33-03.0840N 083-51-43.9040W
43-33.051400N 083-51.731733W
43.5508567,-83.8621956
(estimated)
Elevation: 585 ft. / 178 m (estimated)
Variation: 05W (1980)
From city: 1 mile SE of BAY CITY, MI
Time zone: UTC -4 (UTC -5 during Standard Time)
Zip code: 48708

Heliport Operations

Heliport use: Private use. Permission required prior to landing
Activation date: 10/1986
Control tower: no
ARTCC: CLEVELAND CENTER
FSS: LANSING FLIGHT SERVICE STATION
Attendance: UNATNDD
Wind indicator: yes
Segmented circle: no

Heliport Communications

WX AWOS-3 at HYX (7 nm S): 118.325 (989-752-3408)
WX ASOS at MBS (10 nm W): 118.325 (989-695-2488)
WX AWOS-3 at IKW (19 nm W): 119.525 (989-835-5841)
WX AWOS-3 at CFS (19 nm E): 119.275 (989-672-4182)

Nearby radio navigation aids

VOR radial/distance  VOR name  Freq  Var
MBSr086/9.4SAGINAW VOR/DME112.9003W
FNTr358/35.4FLINT VORTAC116.9006W
MOPr101/38.3MOUNT PLEASANT VOR/DME110.6005W

 
NDB name  Hdg/Dist  Freq  Var  ID
OLSTE076/14.825707WMB -- -...

Heliport Services

Runway Information

Helipad H1

Dimensions: 20 x 20 ft. / 6 x 6 m
Surface: turf
Traffic pattern: leftleft

Heliport Ownership and Management from official FAA records

Ownership: Privately-owned
Owner: HAROLD M MILLER
2126 DEWYSE RD
BAY CITY, MI 48708-9122
Phone 989-297-4154
Manager: HAROLD M MILLER
2126 DEWYSE RD
BAY CITY, MI 48708-9122
Phone 989-297-4154

Heliport Operational Statistics

Aircraft based on the field: 1
Helicopters: 1
    

Additional Remarks

FOR CD CTC GREAT LAKES APCH AT 269-459-3345, WHEN APCH CLSD CTC CLEVELAND ARTCC AT 440-774-0224/0490.

Instrument Procedures

There are no published instrument procedures at 03MI.

Some nearby airports with instrument procedures:

3CM - James Clements Municipal Airport (1 nm W)
KHYX - Saginaw County H W Browne Airport (7 nm S)
KMBS - MBS International Airport (10 nm W)
KIKW - Jack Barstow Airport (19 nm W)
KCFS - Tuscola Area Airport (19 nm E)
 
Loc | Ops | Rwys | IFR | FBO | Links
Com | Nav | Svcs | Stats | Notes
Area around 03MI (Harold Miller Heliport)
 
Road maps at: MapQuest Bing Google
 
Aerial photo
No photo
 
Sectional chart

 
Airport distance calculator
Flying to Harold Miller Heliport? Find the distance to fly.

From to 03MI

Sunrise and sunset
Times for 13-Aug-2020
 Local
(UTC-4)
 Zulu
(UTC)
Morning civil twilight06:0910:09
Sunrise06:4010:40
Sunset20:4000:40
Evening civil twilight21:1101:11

Current date and time
Zulu (UTC)  13-Aug-2020 19:52:54
Local (UTC-4)  13-Aug-2020 15:52:54
 
METAR
KHYX 
7nm S 
131935Z AUTO 04004KT 10SM CLR 28/16 A3010 RMK AO2
KMBS 
10nm W 
131853Z AUTO 09007KT 10SM CLR 30/12 A3012 RMK AO2 SLP196 T03000122
KIKW 
19nm W 
131935Z AUTO 07008G14KT 10SM CLR 30/14 A3010 RMK AO2 T02970136
KCFS 
19nm E 
131935Z AUTO 09005KT 10SM SCT070 30/15 A3010 RMK AO2 T02980149
TAF
KMBS 
10nm W 
131721Z 1318/1418 04007KT P6SM SCT250 FM140000 04005KT P6SM SCT120
NOTAMs
Click for the latest NOTAMs
NOTAMs are issued by the DoD/FAA and will open in a separate window not controlled by AirNav.

 

 
 

Would you like to see your business listed on this page?

 If your business provides an interesting product or service to pilots, flight crews, aircraft, or users of the Harold Miller Heliport, you should consider listing it here.  To start the listing process, click on the button below
 
Add a business
 

Other Pages about Harold Miller Heliport

Update a link
 
Copyright © AirNav, LLC. All rights reserved. Privacy Policy  Contact